Regional Weather Roundup
Issued by NWS

Home | Current Version | Previous Version | Graphics & Text | Print | Product List | Glossary On
Versions: 1 2 3 4 5 6 7 8 9 10 11 12 13 14 15 16 17 18 19 20 21 22 23 24 25 26 27 28 29 30 31 32 33 34 35 36 37 38 39 40 41 42 43 44 45 46 47 48 49 50
000
ASUS43 KDTX 230601
RWRMI
MICHIGAN HOURLY REGIONAL WEATHER ROUNDUP
NATIONAL WEATHER SERVICE DETROIT/PONTIAC MI
200 AM EDT SAT SEP 23 2017

NOTE: "FAIR" INDICATES FEW OR NO CLOUDS BELOW 12,000 FEET WITH NO
SIGNIFICANT WEATHER AND/OR OBSTRUCTION TO VISIBILITY.

MIZ047>049-052>055-059>063-066>070-074>076-081>083-230700-
SOUTHEAST LOWER MICHIGAN

CITY           SKY/WX    TMP DP  RH WIND       PRES   REMARKS
ADRIAN         CLEAR     64  62  93 N8        30.11S
6HR MIN TEMP:  64; 6HR MAX TEMP:  79;

ALMA           CLEAR     65  63  91 W3        30.06F
ANN ARBOR      CLEAR     63  62  97 CALM      30.10S FOG
BAD AXE        CLOUDY    70  64  82 S3        30.08S
CARO           CLOUDY    71  65  84 S3        30.07S
DETROIT CITY   CLEAR     69  64  84 CALM      30.09F
6HR MIN TEMP:  69; 6HR MAX TEMP:  79;

DETROIT        CLEAR     70  66  87 CALM      30.10S
6HR MIN TEMP:  69; 6HR MAX TEMP:  79;

FLINT          CLEAR     71  66  84 N3        30.09R
6HR MIN TEMP:  68; 6HR MAX TEMP:  84;

GROSSE ILE     CLEAR     66  64  95 CALM      30.08S
6HR MIN TEMP:  65; 6HR MAX TEMP:  73;

HILLSDALE      CLEAR     68  63  83 SE3       30.11R
HOWELL         CLEAR     70  65  84 SE5       30.10S
6HR MIN TEMP:  70; 6HR MAX TEMP:  82;


CITY           SKY/WX    TMP DP  RH WIND       PRES   REMARKS
JACKSON        CLEAR     70  65  84 SE5       30.09F
6HR MIN TEMP:  68; 6HR MAX TEMP:  77;

LAMBERTVILLE   CLEAR     65  63  92 CALM      30.08F FOG
6HR MIN TEMP:  65; 6HR MAX TEMP:  73;

LANSING        CLEAR     68  62  81 CALM      30.10R
6HR MIN TEMP:  67; 6HR MAX TEMP:  83;

LAPEER         NOT AVBL
MASON          CLEAR     72  65  77 SE3       30.09S
MONROE         PTCLDY    64  62  93 CALM      30.08S FOG
PONTIAC        CLEAR     70  65  84 CALM      30.09S
6HR MIN TEMP:  70; 6HR MAX TEMP:  83;

PORT HOPE        N/A     73  64  73 S5        30.04F
6HR MIN TEMP:  71; 6HR MAX TEMP:  78;

PORT HURON     CLEAR     66  64  94 CALM      30.11R
TRI CITIES     CLEAR     74  68  81 S8        30.06S
6HR MIN TEMP:  71; 6HR MAX TEMP:  85;

MIDLAND        FAIR      67  65  95 CALM      30.05S
6HR MIN TEMP:  66; 6HR MAX TEMP:  81;

TROY           CLEAR     72  64  77 CALM      30.11F
SAGINAW HB     CLEAR     72  66  83 SE7       30.06R
$$
MIZ043>046-050>051-056>058-064>065-071>073-077>080-230700-
SOUTHWEST LOWER MICHIGAN

CITY           SKY/WX    TMP DP  RH WIND       PRES   REMARKS
BATTLE CREEK   CLEAR     68  65  90 CALM      30.09S
6HR MIN TEMP:  68; 6HR MAX TEMP:  84;

BENTON HARBOR  CLEAR     68  65  90 E3        30.05F
6HR MIN TEMP:  67; 6HR MAX TEMP:  77;

BIG RAPIDS     CLEAR     66  63  89 CALM      30.06S
6HR MIN TEMP:  65; 6HR MAX TEMP:  77;

COLDWATER      CLEAR     69  67  95 CALM      30.09S
6HR MIN TEMP:  68; 6HR MAX TEMP:  79;

FREMONT        FAIR      66  65  94 CALM      30.05S
HOLLAND        CLEAR     69  65  86 CALM      30.06S
6HR MIN TEMP:  68; 6HR MAX TEMP:  78;

GRAND RAPIDS   CLEAR     69  65  86 SE5       30.07S
6HR MIN TEMP:  69; 6HR MAX TEMP:  85;

KALAMAZOO      CLEAR     69  63  81 CALM      30.09R
6HR MIN TEMP:  68; 6HR MAX TEMP:  84;

LUDINGTON      CLEAR     72  64  75 SE3       30.02S
6HR MIN TEMP:  65; 6HR MAX TEMP:  75;

MARSHALL       CLEAR     65  64  99 CALM      30.09S
6HR MIN TEMP:  64; 6HR MAX TEMP:  76;

MUSKEGON       CLEAR     70  65  84 SE5       30.05S
6HR MIN TEMP:  70; 6HR MAX TEMP:  79;

SOUTH HAVEN    CLEAR     69  67  93 CALM      30.06R
$$
MIZ016>042-230700-
NORTHERN LOWER MICHIGAN

CITY           SKY/WX    TMP DP  RH WIND       PRES   REMARKS
ALPENA         CLOUDY    66  65  96 CALM      30.06R
6HR MIN TEMP:  64; 6HR MAX TEMP:  71;

BEAVER ISLAND  CLOUDY    69  64  82 SE6       30.01F
6HR MIN TEMP:  69; 6HR MAX TEMP:  73;

BELLAIRE       PTCLDY    66  62  89 CALM      30.02S
6HR MIN TEMP:  64; 6HR MAX TEMP:  72;

CADILLAC       CLEAR     66  62  84 SE3       30.07S
CHARLEVOIX     PTCLDY    68  62  79 CALM      30.05R
6HR MIN TEMP:  67; 6HR MAX TEMP:  73;

FRANKFORT      CLEAR     80  65  61 S12       30.00F
GAYLORD        CLOUDY    70  61  73 S7        30.07S
6HR MIN TEMP:  68; 6HR MAX TEMP:  70;

GRAYLING       CLOUDY    66  62  87 SE3       30.08S
6HR MIN TEMP:  64; 6HR MAX TEMP:  72;

HARBOR SPRINGS PTCLDY    67  63  87 NE3       30.03S
HOUGHTON LAKE  CLEAR     67  62  84 SE3       30.08S
6HR MIN TEMP:  62; 6HR MAX TEMP:  72;

MANISTEE       CLEAR     64  63  96 NE5       30.01F
OSCODA         CLOUDY    67  67 100 CALM      30.06R
6HR MIN TEMP:  66; 6HR MAX TEMP:  80; 6HR PCP:  0.41;

PELLSTON       CLOUDY    63  61  93 N3        30.04S
6HR MIN TEMP:  60; 6HR MAX TEMP:  71;

ROGERS CITY    PTCLDY    71  61  71 SW9       30.05S
TRAVERSE CITY  CLEAR     70  64  81 CALM      30.01S
6HR MIN TEMP:  70; 6HR MAX TEMP:  75;

$$
MIZ007>008-015-230700-
EASTERN UPPER MICHIGAN

CITY           SKY/WX    TMP DP  RH WIND       PRES   REMARKS
KINROSS        MOCLDY    66  65  96 S5        30.02F
6HR MIN TEMP:  66; 6HR MAX TEMP:  68;

MACKINAC ISLAN LGT RAIN  68  65  91 SE9       30.03S
6HR MIN TEMP:  67; 6HR MAX TEMP:  72;

NEWBERRY       PTCLDY    64  63  97 SE5       30.00F
6HR MIN TEMP:  64; 6HR MAX TEMP:  66;

S. S. MARIE    PTCLDY    67  66  97 NE5       30.02S
6HR MIN TEMP:  67; 6HR MAX TEMP:  69; 6HR PCP:  0.02;

MUNISING         N/A     67  66  97 S3        29.94R
6HR MIN TEMP:  67; 6HR MAX TEMP:  70;

$$
MIZ004>006-011>014-085-230700-
CENTRAL UPPER MICHIGAN

CITY           SKY/WX    TMP DP  RH WIND       PRES   REMARKS
MANISTIQUE     PTCLDY    65  60  81 SE5       29.98F
6HR MIN TEMP:  64; 6HR MAX TEMP:  66;

ESCANABA       CLEAR     69  67  93 SW8       29.94F
6HR MIN TEMP:  64; 6HR MAX TEMP:  69;

MENOMINEE      CLEAR     71  66  84 SW6       29.97S
6HR MIN TEMP:  68; 6HR MAX TEMP:  72;

$$
MIZ001>003-009>011-084-230700-
WESTERN UPPER MICHIGAN

CITY           SKY/WX    TMP DP  RH WIND       PRES   REMARKS
IRON MOUNTAIN  CLEAR     65  63  93 CALM      29.95S FOG
6HR MIN TEMP:  64; 6HR MAX TEMP:  70;

HOUGHTON       CLEAR     65  61  87 N6        29.88R
6HR MIN TEMP:  64; 6HR MAX TEMP:  68;

COPPER HARBOR    N/A     67  61  81 VRB5G22   29.87R
6HR MIN TEMP:  63; 6HR MAX TEMP:  69;

IRONWOOD       CLEAR     78  67  68 SW16G28   29.87R
6HR MIN TEMP:  76; 6HR MAX TEMP:  78;

$$

ABBREVIATIONS USED IN REMARKS
   TC - TEMPERATURE IN CELSIUS
  WCI - WIND CHILL INDEX
   HX - HEAT INDEX
  VSB - VISIBILITY





USA.gov is the U.S. government's official web portal to all federal, state and local government web resources and services.